118  
ASUS43 KEAX 252015  
RWREAX  
 
WEATHER ROUNDUP FOR EASTERN KANSAS AND NORTHWEST MISSOURI  
NATIONAL WEATHER SERVICE KANSAS CITY/PLEASANT HILL MO  
200 PM CST SAT JAN 25 2020  
 
KSZ040-057-103>105-MOZ028-029-037-043-252100-   
..KANSAS CITY METROPOLITAN AREA
 
 
 
CITY SKY/WX TMP DP RH WIND PRES REMARKS
 
K.C. INTL CLOUDY 30 26 85 W5 30.06F WCI 25  
K.C. DOWNTOWN CLOUDY 31 26 82 VRB3 30.08F  
LEES SUMMIT CLOUDY 31 26 82 VRB5 30.07F WCI 26  
OLATHE - IXD CLOUDY 29 26 89 VRB3 30.07F  
OLATHE - OJC CLOUDY 28 25 88 CALM 30.06F  
LAWRENCE CLOUDY 31 27 85 SE3 30.07F  
 

 
 
MOZ001>008-011>017-020>025-030>033-038>040-044>046-053-054-252100-   
..NORTHERN AND CENTRAL MISSOURI
 
 
 
CITY SKY/WX TMP DP RH WIND PRES REMARKS
 
ST. JOSEPH CLOUDY 29 25 85 CALM 30.07F  
MOSBY PTSUNNY 32 27 80 CALM 30.07F  
HARRISONVILLE CLOUDY 32 28 86 CALM 30.11F  
WHITEMAN AFB PTSUNNY 34 31 88 W8 30.03F WCI 27  
CLINTON PTSUNNY 36 27 69 CALM 30.09F  
SEDALIA CLOUDY 33 27 78 W9 30.09F WCI 25  
MARSHALL CLOUDY 32 27 80 W6 30.09F WCI 26  
CHILLICOTHE N/A 32 25 75 VRB5 30.08F WCI 27  
KIRKSVILLE CLOUDY 34 25 69 W13 30.02F WCI 25  
 

 
 
MOZ041-047>049-056>058-063>065-088>090-097-252100-   
..EASTERN AND SOUTHERN MISSOURI
 
 
 
CITY SKY/WX TMP DP RH WIND PRES REMARKS
 
ST. LOUIS INTL CLOUDY 34 26 72 W10 30.06F WCI 26  
SPIRIT OF STL CLOUDY 34 28 79 W10 30.06F WCI 26  
COLUMBIA CLOUDY 33 26 75 W14 30.07F WCI 23  
JEFFERSON CITY CLOUDY 35 25 66 W10 30.09F WCI 27  
MEXICO CLOUDY 32 27 80 W14G22 30.06F WCI 22  
HANNIBAL CLOUDY 34 27 75 W14 30.03S WCI 24  
ROLLA CLOUDY 36 28 73 W10 30.06F WCI 28  
LEBANON MOSUNNY 37 32 81 W7 30.07F WCI 32  
OSAGE BEACH PTSUNNY 38 29 70 W8 30.08F WCI 32  
SPRINGFIELD SUNNY 39 32 76 CALM 30.05F  
BRANSON PTSUNNY 45 30 57 W5 30.07F  
JOPLIN SUNNY 41 32 70 VRB5 30.07F  
WEST PLAINS SUNNY 44 30 57 NW5 30.05F  
SIKESTON PTSUNNY 41 32 70 SW12 30.10F WCI 34  
 

 
 
IAZ060-094-KSZ022-034>040-054-083-096-NEZ052-066-093-252100-    
..KANSAS...SOUTHEAST NEBRASKA AND IOWA
 
 
 
CITY SKY/WX TMP DP RH WIND PRES REMARKS
 
TOPEKA CLOUDY 32 27 81 SE5 30.06F WCI 27  
MANHATTAN CLOUDY 35 30 82 CALM 30.03F  
EMPORIA PTSUNNY 32 31 96 E7 30.03F WCI 26  
OTTAWA CLOUDY 34 30 86 S5 30.06F WCI 30  
CHANUTE MOSUNNY 38 31 76 E7 30.05F WCI 33  
SALINA PTSUNNY 36 31 82 SE6 30.01F WCI 31  
WICHITA CLOUDY 45 32 60 S8 29.98F  
OMAHA PTSUNNY 31 25 78 SW8 30.03F WCI 23  
LINCOLN PTSUNNY 30 26 85 S8 30.02F WCI 22  
FALLS CITY CLOUDY 27 27 100 VRB3 30.05F  
LAMONI MOSUNNY 31 23 72 W8 30.02F WCI 23  
DES MOINES CLOUDY 31 22 69 W14 30.01F WCI 21  
 

 
 
 
 
CLICK HERE TO GO TO PREVIOUS BULLETINS.

The Nexlab MO Page
The Nexlab KS Page Main Text Page